GFSSE_sfc_wetblb_159.txt.gz
Wetbulb
67.35 70.43 72.02 72.74 72.56 72.08 71.67 70.59 70.39 70.11 69.46 69.17 69.46 70.08 69.31 68.67 68.52 68.98 69.12 67.97 67.32 67.40 67.92 67.39 66.85 66.52 67.03 67.47 67.91 68.30 68.39 68.74 68.94 69.24 69.10 69.25 69.06 68.82 68.13 67.01 67.18 65.73 66.02
68.66 70.98 71.29 72.26 72.68 71.88 71.81 71.18 70.85 70.82 69.83 68.95 68.50 69.40 69.29 68.85 68.07 67.66 68.30 66.93 67.26 66.76 66.36 66.73 66.20 65.37 66.33 67.85 67.45 67.56 67.62 68.29 68.14 67.79 67.64 67.69 67.36 67.57 67.11 66.44 66.70 65.41 65.15
69.33 71.14 71.53 71.63 72.31 72.08 72.01 71.46 71.05 70.70 69.89 69.06 68.28 69.08 69.18 68.28 67.73 67.23 67.52 66.82 66.69 66.23 65.99 66.53 65.96 65.30 65.89 67.49 67.70 67.11 67.22 67.52 66.64 66.22 66.27 66.10 65.89 66.67 66.19 65.46 65.24 65.06 64.54
69.99 70.89 71.14 70.60 71.53 71.71 71.92 71.54 71.45 70.90 69.45 69.04 68.89 68.33 68.61 67.77 67.41 68.26 66.94 66.75 66.34 65.73 65.88 66.18 65.40 65.77 66.41 66.34 67.26 67.62 67.21 66.86 65.74 64.91 64.28 64.04 64.05 65.64 65.42 64.82 64.37 64.13 63.96
69.98 70.60 70.83 70.44 71.76 71.77 71.75 71.47 71.27 70.90 70.21 68.91 69.23 69.04 68.19 67.50 66.89 67.17 66.09 65.81 66.15 65.81 66.20 66.27 66.29 66.25 66.47 66.88 66.98 67.21 67.49 66.20 65.24 64.74 64.53 64.03 63.73 63.97 64.55 63.57 63.28 63.05 63.27
69.47 70.16 69.88 70.75 71.33 71.57 71.29 71.10 70.79 70.61 70.55 69.70 68.83 69.55 68.23 67.44 66.83 67.73 66.37 65.81 65.30 65.15 65.51 66.01 66.13 66.30 65.26 66.09 66.74 67.30 67.37 65.70 64.49 64.81 63.76 64.02 63.37 63.65 63.20 62.45 62.49 62.01 63.09
68.75 69.83 70.30 69.94 70.64 70.77 71.12 70.71 70.25 69.94 69.78 69.88 69.49 69.84 68.77 67.72 67.90 67.78 66.24 66.45 65.30 64.95 64.91 65.53 65.50 64.60 64.32 65.14 65.86 67.30 66.49 64.62 64.38 63.33 63.21 63.25 63.67 62.70 62.29 61.95 62.02 61.82 61.79
68.08 69.45 69.97 67.40 68.56 69.65 70.00 69.91 69.53 69.63 69.18 69.04 68.89 69.56 68.80 67.94 67.90 67.63 66.70 66.68 65.16 64.50 64.35 64.67 64.67 63.50 63.78 64.09 64.33 66.39 65.54 63.89 62.89 63.80 63.60 63.24 63.88 62.38 61.70 61.33 61.20 61.16 60.85
68.76 69.06 69.51 69.38 68.52 66.42 67.51 67.65 68.04 68.66 68.37 68.48 67.81 67.98 68.23 67.77 67.60 67.38 66.74 66.93 65.11 65.08 64.34 64.86 63.56 62.92 63.52 63.05 63.09 63.99 64.48 63.38 64.24 63.92 63.10 63.64 64.08 62.40 61.43 60.90 60.49 60.55 60.43
67.98 68.50 68.72 68.88 68.49 68.53 68.51 64.70 65.47 66.65 66.86 66.74 66.16 65.18 64.47 64.83 65.76 65.60 64.59 65.82 66.32 65.27 64.99 64.54 63.23 62.54 62.78 62.22 62.21 62.74 62.08 61.74 63.60 63.11 63.23 63.52 63.31 62.18 61.26 60.65 60.17 60.29 60.07
65.91 67.15 67.82 67.93 67.84 67.62 67.45 65.83 63.46 64.03 64.67 64.14 63.92 62.43 62.35 64.00 65.60 64.98 63.06 64.59 66.26 65.93 65.68 64.46 63.40 62.69 61.83 61.02 61.25 61.26 60.24 62.98 62.83 62.77 62.84 62.48 62.67 62.29 61.35 60.37 59.92 59.72 59.33
63.48 64.92 66.84 67.19 67.13 66.96 66.75 67.00 66.03 65.99 66.22 65.30 64.60 63.82 63.16 62.46 62.31 63.24 61.54 62.06 64.26 64.02 65.42 64.88 63.85 62.91 59.27 59.65 60.27 59.36 61.61 61.35 61.87 62.02 62.26 61.84 62.93 62.74 61.83 60.47 59.98 59.70 59.14
64.38 65.03 66.19 65.64 66.50 66.58 66.51 66.73 65.79 65.15 65.01 64.24 63.79 63.08 62.60 61.78 61.61 61.76 62.70 63.28 64.97 61.00 64.71 64.72 64.00 62.81 60.22 58.97 59.44 60.17 59.70 60.02 60.65 60.54 60.87 61.10 63.21 63.53 62.42 61.14 60.41 59.89 59.55
62.61 64.27 65.33 66.26 65.35 65.80 66.61 65.96 65.81 64.62 64.14 63.27 62.97 62.50 61.75 61.32 60.99 60.78 60.84 62.07 62.57 63.42 63.09 63.54 62.87 62.36 60.68 58.90 58.72 59.21 59.70 59.12 59.20 59.36 59.16 58.24 61.97 63.57 63.24 62.29 61.28 60.82 60.03
61.56 62.89 64.05 65.38 65.61 65.74 65.33 65.82 65.33 64.73 64.12 63.87 62.66 62.25 61.49 61.05 60.72 60.51 60.11 60.48 61.56 62.09 62.10 61.94 61.94 61.24 60.97 60.14 58.92 58.55 58.98 59.24 58.81 58.43 58.91 55.22 58.59 62.90 63.36 63.10 62.39 61.67 61.34
62.23 62.84 63.47 64.21 65.35 65.70 65.32 65.43 65.01 65.15 65.10 63.72 63.22 62.50 61.04 60.95 60.54 59.88 59.70 59.52 60.02 61.17 61.64 61.51 61.15 60.81 60.15 59.87 59.33 58.83 58.91 59.31 58.94 58.57 58.44 58.47 56.96 60.79 63.08 63.32 63.00 62.97 62.05
60.83 62.62 62.99 63.17 64.64 64.82 65.13 65.38 65.40 65.38 65.44 64.60 63.43 62.87 61.58 60.78 60.15 59.84 59.42 59.20 59.68 60.24 60.74 60.62 60.30 59.58 58.77 58.09 57.40 57.73 58.11 58.84 58.79 58.23 57.97 58.23 58.28 57.03 60.74 63.00 63.10 63.16 63.40
58.26 59.97 61.77 62.96 63.42 64.17 64.74 65.10 65.14 65.20 65.21 65.02 64.02 63.29 62.15 61.36 60.82 59.75 59.18 58.99 59.65 59.71 59.90 59.76 59.76 58.91 58.29 57.62 57.07 57.33 57.59 58.33 58.74 58.43 58.31 58.14 57.57 57.30 57.45 60.79 62.81 63.04 63.26
54.70 57.06 59.25 61.62 62.63 63.04 64.15 64.73 64.91 64.98 64.56 64.81 64.41 63.41 62.39 61.88 61.09 60.59 59.75 59.76 59.12 59.02 58.98 59.19 58.80 58.37 58.40 57.81 57.23 57.58 57.44 57.56 58.36 58.25 57.99 58.11 58.02 57.68 57.82 57.60 58.97 60.30 62.69
52.92 54.67 57.54 59.48 61.73 62.59 63.20 63.90 64.27 64.21 64.13 64.41 64.21 63.73 63.28 62.07 61.60 60.64 60.92 60.15 59.15 58.71 58.29 58.29 58.20 58.24 57.73 58.01 56.87 56.49 57.27 57.61 58.20 58.28 58.42 58.68 58.42 58.16 58.24 57.78 58.21 57.66 58.22
51.75 51.58 53.40 56.04 59.18 61.46 61.68 61.64 62.12 61.57 62.45 63.04 63.32 64.02 63.56 62.60 61.84 60.99 60.88 60.39 59.21 59.00 58.80 58.55 58.21 57.25 56.47 56.67 55.80 56.61 56.35 57.07 56.90 57.68 58.58 58.80 58.24 58.05 58.37 57.76 57.80 57.92 57.80
48.96 50.36 51.52 53.15 56.29 58.86 61.14 61.77 62.06 62.16 62.82 63.26 63.42 63.28 63.15 62.79 62.24 61.43 61.00 60.71 59.73 58.96 59.10 58.67 57.95 57.20 56.87 56.74 55.22 54.64 51.97 54.04 55.24 57.04 57.94 57.57 57.69 58.21 57.52 57.71 57.97 57.48 57.64
47.04 48.00 49.06 50.95 52.57 55.55 59.31 61.32 61.48 61.81 60.62 61.38 62.02 62.13 62.79 63.01 62.69 61.85 61.53 61.04 60.19 59.41 58.90 58.75 58.32 57.59 56.69 56.25 56.82 55.59 51.44 49.60 51.38 52.77 54.73 56.69 57.02 57.32 57.80 57.70 57.32 57.33 57.13
45.38 47.38 49.37 50.27 50.59 52.57 58.02 60.18 60.38 59.74 59.11 60.67 61.46 61.85 61.84 62.25 62.37 62.37 61.51 60.67 60.25 59.14 58.68 58.94 58.88 58.09 57.46 56.32 54.06 56.22 57.56 55.18 51.30 50.04 51.04 52.92 55.16 55.55 56.60 56.92 56.85 56.59 56.74
43.95 44.39 46.32 46.79 46.73 51.42 56.23 59.15 60.08 59.88 60.68 61.13 61.07 60.98 60.89 61.06 61.42 61.90 62.08 60.89 60.07 60.04 59.35 59.56 58.32 58.27 58.09 57.29 56.86 55.32 54.33 54.82 55.35 52.43 50.52 52.63 53.42 54.26 56.11 55.92 56.47 56.77 56.46
42.03 42.29 44.74 43.50 43.06 44.80 46.17 50.71 56.62 58.88 59.49 59.66 60.01 59.81 60.18 60.32 60.30 60.48 61.05 61.24 60.91 60.53 60.49 60.23 59.48 59.13 58.08 57.70 57.37 57.40 54.94 53.38 53.19 53.02 51.94 51.84 51.63 53.88 53.99 55.10 55.41 55.75 55.98

GFSSE_sfc_wetblb_162.txt.gz
Wetbulb
69.30 71.87 72.34 72.62 72.56 72.12 71.18 70.18 70.03 69.80 69.78 70.20 70.45 69.87 69.19 68.70 68.43 68.57 69.65 69.26 69.24 67.68 67.19 66.67 66.89 67.28 67.47 68.39 68.56 69.01 69.11 69.12 69.23 69.05 68.96 68.90 68.73 68.17 67.38 66.70 67.17 65.11 65.34
70.59 71.95 71.51 72.32 72.29 72.07 71.16 70.48 70.18 69.79 68.96 68.66 69.48 69.46 68.77 68.17 67.96 67.57 68.42 67.56 67.78 67.15 66.69 66.23 65.60 66.89 67.61 67.55 67.86 68.55 68.42 67.99 67.68 67.48 68.48 67.56 67.23 66.91 66.67 66.03 66.18 64.96 64.68
70.55 71.80 72.13 71.60 72.25 71.82 71.88 70.77 70.52 70.12 69.44 68.22 68.59 69.54 68.88 67.90 67.56 67.71 67.04 67.06 66.84 66.83 66.78 66.21 65.74 65.42 67.39 67.52 67.22 67.80 67.51 66.73 66.18 66.84 67.07 66.92 66.43 66.19 65.92 65.16 64.89 64.61 64.30
70.89 71.65 71.89 70.44 71.60 71.50 71.21 70.63 70.56 69.96 69.51 68.77 68.18 69.04 68.30 67.49 67.04 66.85 66.24 66.30 66.22 65.78 65.67 65.59 65.66 65.92 66.47 67.15 67.49 67.45 67.03 65.96 65.07 66.43 65.58 65.26 65.06 65.34 65.00 64.54 64.22 64.07 64.00
70.73 71.70 71.64 70.67 71.43 71.52 71.16 70.71 70.28 70.44 68.98 68.68 69.00 68.44 67.87 67.06 67.34 67.18 65.83 66.53 65.68 66.19 66.91 65.75 65.97 66.08 66.67 66.54 66.84 67.57 66.69 65.52 65.25 65.94 65.30 64.99 64.87 64.47 63.97 63.11 63.25 62.90 63.55
70.64 71.57 70.29 70.93 71.86 71.53 71.24 70.74 70.11 69.97 69.12 68.52 68.88 68.77 68.08 66.91 66.53 67.09 65.83 66.10 65.60 65.16 65.04 66.11 65.69 65.71 66.05 65.94 66.57 67.80 66.52 65.52 65.88 65.64 64.71 64.03 64.24 63.26 62.94 62.59 62.20 62.33 62.67
70.41 71.45 71.58 70.33 71.23 71.63 71.08 70.75 70.51 69.91 69.72 68.63 67.91 69.15 68.25 67.23 66.64 66.34 65.62 65.10 65.47 64.71 65.43 64.96 65.48 64.38 64.91 64.97 66.70 67.52 66.14 65.24 65.28 64.77 64.14 63.62 64.02 62.49 62.22 61.96 61.81 61.81 61.53
70.04 71.06 71.42 67.82 68.86 70.16 70.81 70.58 70.11 69.90 69.58 69.47 68.93 69.39 68.38 67.82 67.13 66.63 66.34 65.76 64.52 64.26 64.41 64.13 64.67 63.50 64.03 63.98 66.09 66.53 65.52 64.15 63.59 64.07 63.76 64.58 63.41 62.41 61.87 61.34 61.15 61.20 60.91
70.12 70.60 71.11 71.13 69.29 66.48 68.11 68.33 68.58 69.14 68.81 68.77 67.96 68.87 68.70 67.72 67.57 67.22 66.78 66.70 64.93 64.34 64.00 64.45 64.16 63.22 63.47 63.04 63.49 65.05 64.59 63.57 64.37 64.80 63.46 64.37 63.84 62.46 61.78 61.07 60.66 60.52 60.57
69.72 70.11 70.38 70.81 70.83 70.68 70.50 65.24 65.83 67.12 67.30 67.58 66.75 65.61 65.21 65.66 65.53 65.48 64.56 65.66 66.37 65.62 64.83 64.80 63.67 62.84 63.07 62.47 62.23 63.20 62.94 62.67 64.08 64.06 64.35 64.16 63.35 62.44 61.80 61.15 60.69 60.81 60.45
68.29 69.07 70.06 70.13 70.42 70.53 70.27 67.65 63.99 64.47 65.21 64.76 64.62 62.92 63.16 65.82 66.64 65.19 63.71 64.56 66.37 65.98 65.68 65.00 63.78 62.91 62.61 61.32 60.77 61.90 61.30 63.81 63.69 64.05 64.00 62.78 63.00 62.78 61.99 61.27 60.68 60.55 60.30
67.09 67.68 69.08 69.66 69.80 69.95 69.15 69.02 68.78 68.59 68.27 67.96 67.07 66.68 65.86 65.99 66.12 65.46 62.69 61.94 64.35 64.22 65.26 65.36 64.40 63.59 60.28 62.47 62.97 60.00 63.49 63.61 63.69 63.49 63.57 62.40 63.15 63.31 62.68 61.29 60.88 60.66 60.16
67.63 68.21 68.42 68.77 69.31 69.57 69.41 69.28 68.99 68.71 68.22 68.00 67.64 67.02 66.15 65.47 65.42 64.83 65.89 65.30 65.18 61.36 64.30 64.64 64.60 63.22 62.32 61.62 62.12 62.81 62.85 63.16 63.10 63.11 62.20 61.50 63.18 63.77 63.76 62.19 61.35 60.98 60.53
66.04 67.15 68.53 69.24 68.26 68.01 69.56 69.08 69.13 68.51 68.15 67.40 66.96 66.69 65.67 64.86 64.77 64.56 64.19 65.31 65.25 65.19 64.60 64.89 64.10 63.68 62.92 62.02 61.23 61.54 62.39 62.46 61.95 62.05 61.56 59.40 61.87 63.59 64.43 63.29 62.14 61.46 60.99
63.94 65.60 67.12 68.48 68.99 68.31 67.34 69.12 68.98 68.81 68.22 67.91 67.32 66.70 65.71 64.83 64.09 64.27 63.83 64.21 64.74 64.92 64.49 64.08 63.95 63.48 62.92 62.13 61.55 60.74 60.66 61.61 62.08 62.03 62.16 56.51 58.89 62.35 63.78 64.12 63.30 62.23 61.71
61.25 62.61 64.56 66.70 67.95 68.66 68.56 68.15 68.32 68.04 68.63 68.26 67.74 67.02 66.06 65.27 64.74 64.14 63.58 63.10 63.22 63.93 64.20 63.83 63.31 63.07 62.93 62.63 61.52 61.37 60.77 60.90 61.54 62.01 62.09 61.79 57.73 59.89 62.69 63.74 64.16 63.84 62.95
59.73 61.14 62.12 63.68 65.96 66.83 67.53 68.23 68.33 67.82 67.65 67.77 67.61 67.68 66.76 65.65 64.84 64.19 63.93 63.46 63.20 63.27 63.21 63.27 63.06 63.17 62.55 62.46 61.96 61.90 61.15 60.92 60.89 61.43 61.72 61.72 61.38 57.30 59.62 62.73 63.48 63.89 64.17
58.29 58.69 60.29 61.39 63.40 64.67 65.68 66.80 67.71 68.31 67.92 67.79 67.81 67.35 66.87 66.20 65.55 65.02 64.20 63.74 64.03 63.28 62.79 62.24 61.92 61.31 61.24 61.15 61.00 61.21 60.88 60.39 60.17 60.37 61.05 61.44 61.38 61.19 59.20 59.74 62.31 63.29 63.74
57.23 57.51 58.05 59.84 61.39 62.95 64.55 65.66 66.64 67.33 66.95 65.87 66.61 66.68 66.45 66.11 65.93 65.20 64.71 64.51 64.36 63.33 62.70 62.08 61.59 61.25 60.31 60.20 60.00 60.47 60.72 60.56 60.11 59.72 60.03 60.67 61.29 61.20 61.62 59.67 58.50 60.10 62.95
55.95 56.64 57.15 57.97 59.44 61.25 63.16 64.32 65.31 65.95 65.63 65.27 65.21 65.31 65.29 64.73 65.20 65.09 64.97 64.83 64.44 63.20 62.67 62.42 61.41 61.52 60.56 59.96 59.15 58.97 60.00 60.62 60.61 60.49 59.83 60.19 60.77 61.33 61.33 61.15 60.76 58.32 58.24
54.10 54.15 54.85 55.54 57.18 58.90 61.26 62.25 62.93 63.09 64.26 64.61 64.67 64.84 64.64 64.23 63.41 64.45 64.78 64.83 64.24 62.60 62.76 62.94 62.13 60.75 60.01 59.55 57.19 57.34 59.10 60.04 60.12 60.57 60.20 60.21 60.39 61.25 61.04 61.34 60.60 60.44 60.38
52.06 53.05 54.01 54.37 55.24 56.66 59.51 61.51 62.34 62.62 63.80 64.53 65.13 64.97 64.05 64.21 63.54 62.58 63.26 63.52 63.56 61.58 61.90 62.43 61.54 60.32 59.76 60.19 55.88 55.35 53.13 56.96 59.59 59.38 59.82 59.76 59.86 60.83 60.71 60.66 60.40 59.64 61.05
49.82 50.62 51.90 53.55 55.73 56.61 56.45 58.95 61.02 62.72 63.13 62.89 63.62 64.10 64.09 63.84 63.66 62.83 62.36 62.62 63.01 61.89 60.38 61.42 61.67 59.68 58.44 59.22 58.35 56.78 53.28 53.27 55.90 57.94 58.19 58.91 59.14 59.76 60.25 60.18 59.96 59.25 60.73
47.79 49.47 49.44 50.21 51.74 53.98 59.27 58.18 59.64 59.80 59.48 61.31 62.48 63.75 64.32 64.90 63.78 63.43 62.93 62.15 62.12 62.25 60.44 60.85 60.80 60.04 58.84 57.33 56.79 57.29 59.05 59.31 55.05 54.39 57.63 57.01 57.96 57.89 58.76 60.08 59.67 60.07 60.50
46.65 47.36 47.43 47.64 48.06 49.77 52.53 58.18 60.59 60.41 61.42 62.11 62.62 62.89 63.61 64.38 64.53 64.31 63.62 62.80 61.86 61.66 61.45 60.55 59.87 58.87 59.01 57.95 57.56 55.38 55.42 56.09 56.70 54.44 53.00 56.42 57.16 57.46 58.53 58.94 59.99 59.87 59.79
45.10 45.36 46.06 45.41 44.70 46.52 48.40 49.78 51.55 53.09 55.46 56.61 56.99 60.21 61.66 62.81 63.58 63.41 63.64 63.51 63.08 61.92 61.62 60.92 60.06 59.37 58.62 58.13 58.31 58.38 56.47 54.33 53.74 53.73 52.96 54.34 56.32 57.61 57.68 58.39 58.87 58.83 58.97

GFSSE_sfc_wetblb_165.txt.gz
Wetbulb
69.32 71.28 72.52 72.51 72.05 71.25 70.72 70.41 70.08 69.87 70.31 70.82 70.34 69.48 68.84 68.12 68.57 69.00 69.21 69.45 69.32 67.59 66.98 67.20 67.59 67.98 68.71 68.79 68.90 69.33 69.63 69.34 69.05 68.78 68.64 68.35 67.81 67.45 66.98 66.36 66.68 64.19 65.40
70.42 71.27 71.65 72.23 72.11 71.41 70.90 70.15 69.64 69.26 68.88 69.37 69.82 69.18 68.46 67.97 67.66 67.49 67.46 68.54 67.65 67.16 66.15 65.76 67.47 67.49 67.71 68.38 68.90 68.55 68.24 67.95 67.67 68.69 68.44 67.40 66.76 66.57 66.23 65.48 66.23 64.31 65.01
70.56 71.45 71.70 71.81 71.80 71.53 70.78 70.45 69.83 69.29 68.68 67.87 68.78 69.21 68.37 67.35 67.55 66.80 66.45 67.05 66.39 66.81 65.49 65.41 65.62 67.42 67.35 67.37 68.18 67.64 67.10 66.42 66.69 66.69 67.71 66.33 65.24 65.90 65.57 64.98 64.81 64.82 64.56
71.26 71.44 71.66 70.70 71.75 71.38 70.90 70.39 70.23 70.07 68.90 68.07 68.72 69.13 68.05 66.69 67.36 65.94 65.43 66.00 65.71 65.87 65.84 64.37 65.45 66.62 66.78 67.29 67.30 67.23 66.31 65.41 65.27 66.08 65.55 65.18 64.96 64.95 64.96 64.62 64.31 64.42 63.83
70.92 71.62 71.26 70.60 71.72 71.35 70.77 70.36 70.09 69.43 69.22 68.81 68.05 68.81 67.54 66.52 67.03 66.49 65.23 65.37 64.86 64.91 64.84 64.66 66.10 66.12 66.73 66.58 67.35 67.05 65.93 64.73 65.92 65.62 64.81 64.47 64.37 63.77 63.55 63.77 63.18 63.31 65.16
70.67 71.52 69.94 71.04 71.83 71.26 70.78 70.20 70.04 69.75 68.68 68.51 69.42 68.40 68.14 66.87 66.01 65.68 65.03 64.74 64.73 64.46 65.10 65.21 65.88 65.75 66.04 66.15 66.92 67.04 65.80 64.97 65.86 65.25 64.45 63.35 63.26 63.26 62.98 62.45 62.57 62.76 64.32
70.47 71.19 71.18 70.57 71.47 71.56 70.87 70.51 70.04 69.85 69.39 68.90 68.50 69.00 68.22 67.46 66.41 65.72 65.16 63.91 64.27 63.57 63.84 64.56 65.74 65.16 65.53 65.65 67.00 67.12 65.90 65.45 65.44 64.49 63.58 63.65 63.03 62.75 62.31 62.16 62.14 61.94 61.88
70.09 70.62 70.71 68.03 69.40 70.51 70.65 70.84 70.51 69.82 69.84 69.25 68.07 69.08 68.92 68.21 67.30 66.43 65.68 64.90 63.98 63.74 63.85 63.71 65.09 64.65 64.62 64.79 66.55 66.36 65.88 64.41 62.79 63.62 63.35 63.73 63.17 62.28 61.87 61.49 61.28 61.03 61.14
70.28 69.95 70.20 70.50 69.15 66.97 68.81 68.98 69.01 69.17 69.27 69.42 68.81 69.73 68.69 67.87 67.72 67.54 66.62 66.67 65.41 64.14 63.68 63.56 64.48 64.20 63.85 64.19 63.97 65.15 64.87 63.92 63.20 63.76 62.91 63.14 63.90 62.11 61.72 61.01 60.68 60.58 60.70
69.80 70.03 69.36 69.78 69.99 69.54 70.13 65.82 66.32 67.28 67.78 67.78 67.09 66.81 66.57 66.13 65.55 65.64 64.66 65.96 66.53 66.12 65.25 64.53 64.09 63.50 63.29 63.62 62.91 63.22 63.73 63.22 62.67 63.54 63.23 63.17 63.57 62.29 61.86 61.19 60.65 60.62 60.32
68.72 69.44 69.98 69.31 69.55 69.57 69.56 67.43 64.25 64.51 65.51 65.31 65.17 63.40 63.49 65.94 65.86 65.48 63.74 64.63 66.48 66.57 66.18 65.39 64.61 63.53 63.20 62.66 62.53 62.00 61.40 62.94 63.12 62.92 63.12 62.91 62.84 62.80 62.18 61.56 61.02 60.99 60.71
67.42 68.68 69.53 69.86 69.79 69.32 68.76 69.13 69.06 68.75 68.20 67.69 67.12 66.70 65.56 66.01 65.57 65.27 62.99 62.23 64.14 64.50 65.46 65.97 65.19 64.03 61.54 60.71 61.98 60.44 62.13 62.46 62.72 62.60 62.83 63.12 62.67 63.17 63.22 62.00 61.38 61.12 60.74
66.86 68.39 68.97 69.48 70.01 69.90 69.12 68.75 68.68 68.44 68.21 68.38 68.16 67.63 67.23 66.25 66.19 65.41 66.06 64.96 64.92 61.00 64.11 64.10 64.28 63.37 61.97 61.50 61.14 61.78 62.15 62.42 62.43 62.62 62.24 62.09 62.83 63.64 64.19 63.28 61.91 61.55 61.33
65.00 66.43 68.07 69.27 69.30 69.51 69.87 69.07 68.52 68.20 68.06 68.00 68.31 67.98 67.44 66.36 66.05 65.20 64.79 65.31 65.89 65.43 64.50 64.70 63.29 63.99 63.09 62.40 62.06 60.95 61.51 62.08 62.08 61.98 61.14 60.09 62.17 63.40 63.98 64.98 63.25 61.74 61.52
61.44 63.08 65.06 67.50 68.49 69.11 68.29 69.23 69.01 68.02 67.91 68.23 68.17 68.07 67.28 66.32 66.04 65.35 65.22 64.60 64.78 65.13 64.72 64.20 64.08 63.72 63.51 62.76 61.91 61.20 60.49 60.89 61.51 61.62 61.80 57.45 60.48 62.31 63.57 64.22 65.09 63.60 62.56
59.66 60.48 62.30 63.78 66.51 67.90 68.84 68.21 68.42 69.11 69.20 68.61 68.34 68.02 67.65 66.94 66.53 65.72 65.18 64.67 64.32 64.69 64.59 64.14 63.41 63.24 62.77 62.70 62.09 61.72 61.12 60.82 60.64 60.92 61.60 61.54 59.10 61.09 62.35 63.57 64.16 65.15 64.37
58.69 59.54 59.91 61.72 63.54 65.20 66.72 67.91 68.50 68.35 68.41 68.28 68.50 67.78 67.57 67.31 66.42 65.77 65.60 65.10 64.81 64.78 64.16 63.91 63.44 63.21 62.59 62.50 62.24 62.11 61.40 60.99 60.61 60.22 60.69 61.38 61.08 58.47 60.33 62.32 63.39 63.97 65.04
58.45 58.65 59.73 60.18 61.32 62.90 64.23 65.67 66.40 67.45 68.22 66.91 66.93 67.19 67.53 67.07 67.04 66.38 65.73 65.37 65.82 65.18 64.40 63.55 63.09 62.17 61.88 61.40 61.03 61.30 61.63 61.79 61.52 60.74 60.48 60.64 60.95 60.95 58.95 60.64 61.98 63.30 63.84
57.44 57.72 58.22 59.33 59.69 61.16 62.94 64.07 65.48 66.36 67.07 67.88 67.81 68.22 67.44 66.89 66.51 65.77 66.26 66.17 65.95 64.96 64.43 63.74 63.06 62.30 61.39 61.17 60.94 60.98 61.30 61.09 61.30 60.76 60.13 60.26 60.74 61.05 61.29 59.91 58.97 59.89 62.83
56.34 56.83 57.17 57.78 58.36 59.30 60.96 62.72 64.30 65.19 66.14 66.99 66.80 65.53 65.97 66.13 65.57 65.03 65.10 65.23 64.91 63.79 63.38 62.97 62.40 62.75 62.00 61.61 60.48 59.82 60.61 60.81 61.09 60.97 60.76 60.52 60.32 60.64 61.14 60.95 59.82 57.98 58.28
55.61 55.52 56.15 56.31 56.93 57.54 58.51 60.08 62.02 62.23 64.51 65.08 65.74 65.23 64.12 64.60 64.90 64.32 64.01 64.14 64.08 63.05 62.71 62.92 62.28 61.01 60.61 61.07 58.55 58.97 59.89 60.51 60.30 60.54 61.12 60.88 60.41 60.30 60.58 60.86 60.87 60.59 59.02
53.39 53.69 54.22 54.98 56.60 57.71 57.18 59.40 61.46 62.31 62.95 63.77 64.81 65.35 65.20 64.06 64.12 63.59 63.27 62.98 62.92 62.70 62.20 61.90 61.57 60.23 60.03 60.80 56.16 55.77 53.10 57.12 59.66 60.28 60.68 60.35 60.16 60.27 59.85 60.18 60.60 60.62 60.38
51.21 51.36 51.50 52.67 54.52 55.91 59.94 57.68 58.64 60.80 61.95 62.13 63.06 63.96 64.93 64.31 63.55 63.66 63.07 62.69 62.51 62.20 61.48 60.99 61.05 60.52 58.59 59.46 58.37 56.59 52.25 51.89 57.14 60.67 60.05 59.68 59.46 59.39 59.71 59.61 59.96 60.23 60.36
49.48 50.50 50.15 50.58 51.85 53.86 56.05 59.81 58.70 58.90 59.14 61.03 61.97 63.41 63.72 63.75 63.65 63.34 63.18 62.76 62.36 62.63 61.59 61.03 60.79 60.32 59.91 57.86 58.47 58.07 58.29 57.89 54.47 54.14 59.26 58.30 58.79 58.39 59.10 59.55 59.66 60.01 59.95
48.19 48.66 48.58 48.34 48.74 50.66 52.32 54.55 57.35 57.81 59.75 60.39 60.24 61.42 62.30 63.32 64.53 63.65 63.95 63.04 62.17 61.78 61.35 61.16 60.53 59.92 59.92 58.75 57.96 55.82 56.06 56.42 56.49 54.43 52.85 55.18 59.14 58.33 58.31 58.74 59.27 59.47 59.69
46.70 46.81 46.81 46.10 45.37 47.07 48.52 49.49 50.77 52.09 53.84 52.80 53.01 53.11 54.43 54.08 54.56 53.22 53.67 56.16 61.76 62.45 61.48 61.10 61.12 60.45 59.80 59.03 58.67 58.18 56.84 54.12 54.05 53.99 53.23 53.97 54.25 57.18 59.84 59.26 58.12 58.69 59.65

GFSSE_sfc_wetblb_168.txt.gz
Wetbulb
68.29 70.49 72.49 72.54 71.81 70.98 70.63 70.38 70.18 70.62 70.71 70.53 70.10 69.39 68.62 68.85 69.14 69.22 69.80 69.66 68.84 67.62 67.89 68.21 68.29 68.84 68.73 68.66 69.42 69.78 69.51 69.06 68.97 68.65 68.08 67.62 67.61 67.11 66.49 66.40 66.24 63.72 65.86
69.28 70.51 71.87 72.47 72.17 71.29 70.43 70.00 70.06 69.95 69.55 70.22 69.85 69.17 68.55 68.12 67.87 67.47 68.22 68.47 67.75 66.23 66.18 68.23 68.13 67.93 68.49 69.07 68.72 68.51 68.19 67.99 68.64 68.72 68.17 67.04 66.62 66.49 65.96 65.37 65.97 64.00 66.69
69.47 70.46 71.35 71.92 72.15 71.64 70.78 70.68 70.39 70.05 68.68 68.44 69.61 69.25 68.26 67.74 67.22 66.71 67.19 66.92 66.89 65.54 65.78 65.86 67.21 67.99 67.55 68.17 67.89 67.35 66.65 66.30 66.69 67.17 67.33 63.14 63.08 65.77 65.39 64.92 65.16 64.92 64.98
70.05 70.29 70.49 70.99 71.73 71.75 71.30 70.99 70.73 70.11 68.64 68.81 69.66 68.79 67.80 67.31 67.03 65.76 65.50 66.27 65.68 66.41 64.89 65.42 66.58 67.05 67.40 67.24 67.32 66.75 65.62 65.05 65.58 65.55 62.64 63.61 63.10 65.00 65.14 64.71 64.60 64.05 64.50
69.30 70.70 69.80 70.59 71.84 71.70 71.17 70.98 70.74 70.45 69.68 68.67 69.26 68.63 67.81 67.32 67.08 66.59 65.79 65.24 65.16 64.93 64.07 65.59 66.97 66.83 66.69 66.69 67.00 66.43 65.14 65.34 65.73 64.57 60.66 60.79 60.67 63.23 64.33 63.50 63.67 63.83 65.15
69.04 70.25 69.57 70.98 71.81 71.61 71.10 70.80 70.61 69.86 69.44 69.12 68.48 68.37 67.95 67.51 67.18 67.46 65.77 65.78 65.15 64.99 65.16 66.32 66.32 66.12 66.34 66.40 67.10 66.59 65.29 65.86 66.21 62.67 61.51 62.86 60.78 63.38 63.07 62.59 63.15 62.94 64.02
68.70 69.92 69.99 70.61 71.31 71.44 71.13 70.59 70.54 70.39 69.59 69.25 69.50 68.70 68.41 68.10 67.73 67.39 65.80 65.18 64.66 63.91 63.94 64.53 65.93 65.37 65.58 65.80 67.64 66.55 65.63 65.39 63.16 60.73 59.69 60.88 60.42 62.81 62.44 62.02 61.94 62.11 61.80
68.66 70.04 69.78 68.09 69.39 70.30 70.64 70.62 70.35 70.23 70.31 69.61 68.76 69.27 68.88 68.43 68.12 67.15 66.43 65.37 64.79 63.88 64.30 63.97 64.49 64.80 64.41 64.79 65.35 66.41 65.15 63.98 62.65 61.56 60.18 60.28 63.63 62.71 61.80 61.23 61.06 60.58 60.96
68.78 68.94 69.68 69.36 68.52 67.20 68.59 68.92 69.09 69.01 69.23 69.34 68.78 69.35 68.55 67.78 67.59 67.61 66.63 66.80 65.72 64.71 64.33 63.72 64.25 63.80 63.33 63.73 63.55 64.37 64.22 63.31 61.21 61.58 61.28 60.76 64.10 62.61 61.79 60.91 60.71 60.45 60.41
67.19 67.71 68.22 69.02 69.03 68.62 68.07 66.02 66.45 67.07 67.46 67.47 66.95 66.32 66.19 65.76 65.62 65.65 64.59 65.81 66.85 66.28 66.16 65.67 64.79 63.52 63.20 63.06 63.30 63.21 62.94 62.68 60.39 60.25 60.09 60.78 64.24 62.69 61.92 61.24 60.67 60.62 60.50
66.47 66.64 67.08 67.75 68.39 68.38 68.59 66.82 64.32 64.55 65.20 65.06 64.79 63.34 63.17 64.78 64.38 63.41 63.10 64.33 66.01 66.11 66.30 66.03 65.32 64.33 63.40 62.40 62.26 61.40 61.15 60.12 59.77 59.30 60.06 63.31 64.00 62.99 62.72 62.15 61.45 61.20 61.07
64.57 65.86 66.63 66.85 66.75 67.55 68.19 66.83 67.23 66.80 65.25 65.29 64.68 63.86 63.16 63.39 63.47 63.98 61.74 62.05 63.80 64.19 65.48 66.01 65.89 64.09 61.55 58.54 57.61 60.65 58.76 59.40 58.80 58.58 59.55 63.33 63.51 62.89 63.26 63.00 62.22 61.63 61.55
63.60 65.38 66.58 66.75 67.04 66.78 66.19 67.24 66.99 67.01 66.67 66.36 65.88 64.99 63.75 63.35 62.67 61.59 62.41 61.06 60.88 59.81 62.05 62.90 62.83 62.00 60.06 57.92 56.61 57.97 58.66 58.63 58.09 58.42 59.83 62.59 63.75 63.08 63.65 64.27 63.07 62.17 61.74
60.81 62.85 65.24 66.50 66.55 66.51 66.90 67.17 66.81 66.34 66.37 65.87 66.00 66.01 64.21 63.34 62.17 61.69 61.08 61.78 61.66 61.32 60.77 60.66 60.77 60.92 60.53 59.06 58.39 57.95 57.17 57.10 57.51 57.73 57.66 60.09 63.24 63.44 63.77 64.28 64.73 63.37 62.02
56.30 57.77 60.87 63.82 65.16 66.17 66.02 66.10 66.19 66.52 66.75 66.40 66.28 66.09 65.73 63.49 62.49 62.00 61.41 60.78 60.71 61.69 61.09 60.90 60.31 60.11 59.86 59.63 58.98 58.39 57.46 56.85 56.89 57.59 57.36 57.07 60.78 63.45 63.73 64.29 64.71 65.32 63.71
55.24 54.96 57.00 58.16 61.70 64.68 65.74 65.50 65.35 65.90 65.69 66.69 66.55 66.08 65.80 64.75 63.05 62.45 61.70 61.41 60.54 60.65 60.63 60.26 59.75 59.47 59.37 59.58 59.25 58.69 57.67 57.00 56.79 56.65 57.14 57.25 59.37 62.17 63.38 63.85 64.37 64.88 65.63
54.16 54.57 55.68 56.54 58.25 59.20 62.91 65.71 66.14 65.78 65.43 65.27 65.60 66.45 66.12 65.58 64.58 62.64 61.96 61.48 61.18 60.94 60.59 60.12 59.74 59.22 58.75 59.29 58.57 58.96 58.55 57.89 57.33 56.90 56.64 56.98 57.60 58.86 61.40 63.23 63.64 64.24 64.82
53.64 54.07 55.16 57.20 56.55 57.69 58.98 60.76 63.19 64.35 64.86 64.81 64.60 64.79 65.86 65.89 65.42 64.64 63.85 61.96 62.06 61.46 60.66 59.58 59.13 58.43 57.94 57.71 57.37 57.67 58.18 58.43 58.30 58.00 57.80 57.04 57.18 58.65 58.45 61.36 62.93 63.84 64.25
52.30 52.68 53.19 54.48 54.83 55.84 57.28 58.99 60.30 61.89 62.76 64.23 64.49 64.33 64.36 65.07 65.49 65.05 64.18 63.90 63.76 63.12 62.09 61.04 59.64 59.09 57.65 57.34 57.43 57.52 57.20 57.12 57.78 59.33 58.38 57.35 57.17 58.08 57.92 58.51 59.55 60.25 62.91
51.94 52.53 52.97 53.88 53.75 54.16 55.02 56.55 58.39 59.74 61.44 62.73 63.10 63.86 63.84 64.57 65.05 64.24 64.09 63.76 63.69 62.82 62.13 61.88 61.12 60.96 60.44 59.70 59.67 59.15 57.40 57.59 57.38 57.64 57.69 58.17 57.89 58.02 58.07 58.42 57.72 57.57 58.53
51.22 51.10 51.64 52.07 53.33 53.88 52.31 53.02 55.79 57.03 59.28 60.64 62.23 63.36 62.88 63.01 63.80 63.93 63.71 63.55 63.30 62.69 62.34 61.84 61.17 60.27 60.04 60.26 58.29 58.41 58.94 59.54 57.82 57.14 57.80 58.25 58.38 58.21 57.94 58.36 58.76 58.29 57.81
49.16 48.68 49.27 50.44 51.80 52.95 55.60 54.19 53.93 56.16 57.72 59.09 60.97 62.03 62.64 62.03 63.31 63.42 63.18 62.75 62.65 62.02 61.97 61.55 61.11 60.31 59.91 60.07 57.15 55.83 53.60 55.62 57.80 58.60 58.55 58.31 58.09 58.64 58.16 57.83 58.22 58.35 58.44
46.72 46.33 47.78 49.00 50.18 51.74 53.13 56.53 53.49 54.62 56.31 57.41 58.64 59.89 61.64 62.54 62.75 63.06 62.87 62.53 62.04 61.82 61.23 61.04 60.83 60.11 58.96 59.31 59.30 56.98 52.52 50.95 54.95 57.76 58.04 58.55 58.28 57.87 58.10 58.09 57.64 57.73 58.34
45.54 45.86 45.87 46.76 47.30 49.29 50.33 52.86 55.71 55.77 55.42 55.96 56.80 58.73 60.19 60.38 61.25 62.37 61.87 62.49 61.99 61.70 61.07 60.87 60.73 60.19 59.53 58.02 58.39 58.64 58.59 57.71 54.45 53.67 57.20 57.26 57.28 56.76 56.86 56.44 57.26 57.48 57.61
44.82 44.08 43.32 43.28 44.00 45.45 46.62 47.59 50.08 50.46 52.67 52.14 52.68 53.41 54.40 54.78 54.37 52.98 53.39 53.61 57.91 61.30 61.13 60.82 60.22 59.54 59.79 58.92 58.40 57.49 56.33 57.07 56.96 54.35 52.69 55.13 57.15 58.21 57.55 57.51 57.32 57.78 57.92
42.51 42.04 41.45 40.74 40.89 42.84 43.33 43.55 44.03 44.81 44.98 44.36 44.68 45.93 48.21 49.90 49.67 46.65 48.16 49.45 52.05 53.08 53.50 57.33 60.37 59.84 59.88 59.42 59.16 58.62 57.36 54.71 53.89 54.02 53.21 54.05 54.37 56.36 57.53 58.76 57.53 57.43 58.03